Location: Cluj-Napoca
(46.7712°N, 23.6236°E)
Time: 07:32:22
(UTC+02:00)

ISS - Pass Details

Date: 17 January 2021
Orbit: 418 x 421 km, 51.6° (Epoch: 23 January)

Event Time Altitude Azimuth Distance (km) Brightness Sun altitude
Rises 18:50:38 0° 189° (S) 2,356 0.3 -17.3°
Reaches altitude 10° 18:53:48 10° 156° (SSE) 1,499 -1.1 -17.9°
Enters shadow 18:53:48 10° 156° (SSE) 1,498 -1.1 -17.9°
